Regional Weather Roundup
Issued by NWS

Home | Current Version | Previous Version | Text Only | Print | Product List | Glossary On
Versions: 1 2 3 4 5 6 7 8 9 10 11 12 13 14 15 16 17 18 19 20 21 22 23 24 25 26 27 28 29 30 31 32 33 34 35 36 37 38 39 40 41 42 43 44 45 46 47 48 49 50
000
ASUS43 KIND 220709
RWRIN

WEATHER ROUNDUP FOR INDIANA
NATIONAL WEATHER SERVICE INDIANAPOLIS IN
300 AM EDT SUN APR 22 2018

NOTE: "FAIR" INDICATES FEW OR NO CLOUDS BELOW 12,000 FEET WITH NO
SIGNIFICANT WEATHER AND/OR OBSTRUCTIONS TO VISIBILITY.

* - STATION DOES NOT REPORT WEATHER SUCH AS PRECIPITATION OR FOG.

+ - STATION NOT QUALITY CONTROLLED BY THE NATIONAL WEATHER SERVICE.
    USE DATA WITH CAUTION...ESPECIALLY DEWPOINT AND RELATIVE
    HUMIDITY OBSERVATIONS.

INZ001>003-010>013-019-020-220800-
NORTHWEST INDIANA

CITY           SKY/WX    TMP DP  RH WIND       PRES   REMARKS
GARY /AIRPORT/ FAIR      43  29  58 NE6       30.35F
KNOX *+        FAIR      39  34  81 NE7       30.35F WCI  34
LA PORTE +     FAIR      40  31  69 CALM      30.36F
MICHIGAN CITY+ FAIR      37  32  81 CALM      30.36F
MONTICELLO +   FAIR      47  27  45 E5        30.32S
RENSSELAER +   FAIR      45  23  42 NE9       30.32F
VALPARAISO     FAIR      45  30  55 NE8       30.34F

$$

LMZ046-743>745-220800-
SOUTHERN LAKE MICHIGAN

STATION/POSITION TIME  TEMP    WIND        PRES    WAVE
                       AIR SEA DIR/SP/G            HT
                 (UTC) (F)     (DEG/KT/KT) (MB)    (FT)
BURNS HARBOR     0640   42      60/  7/  8 1028.4F
MICHIGAN CITY    0640   42      60/  3/  3   N/A

$$

INZ004-005-014>016-021>024-220800-
NORTH CENTRAL INDIANA

CITY           SKY/WX    TMP DP  RH WIND       PRES   REMARKS
GOSHEN         FAIR      43  30  60 SE5       30.36S
LOGANSPORT +   FAIR      45  30  57 NE7       30.33F
PERU/GRISSOM   CLOUDY   N/A N/A N/A E9          N/A
ROCHESTER +    FAIR      48  30  49 E5        30.35F
SOUTH BEND     FAIR      40  28  62 CALM      30.37S
WARSAW +       FAIR      45  25  45 CALM      30.36R

$$

INZ006>009-017-018-025>027-220800-
NORTHEAST INDIANA

CITY           SKY/WX    TMP DP  RH WIND       PRES   REMARKS
AUBURN +       FAIR      37  27  65 NE3       30.37F
FORT WAYNE     CLOUDY    43  26  51 E7        30.35F
HUNTINGTON +   FAIR      43  23  45 E5        30.34F

$$

INZ028-029-035-036-043>045-051>053-220800-
WEST CENTRAL INDIANA

CITY           SKY/WX    TMP DP  RH WIND       PRES   REMARKS
CRAWFORDSVL +  FAIR      46  29  49 E10G16    30.27F
GREENCASTLE +  FAIR      46  27  46 E12       30.26F
LAFAYETTE      FAIR      47  30  51 NE14      30.29F
TERRE HAUTE    FAIR      50  27  40 SE7       30.25S

$$

INZ030>032-037>040-046>048-054>057-064-065-220800-
CENTRAL INDIANA

CITY           SKY/WX    TMP DP  RH WIND       PRES   REMARKS
FISHERS *+     FAIR      46  32  57 E3        30.30F
FRANKFORT +    MOCLDY    49  31  48 E14G21    30.30F
GREENWOOD *+   FAIR      47  28  47 E8        30.28F
INDIANAPOLIS   CLOUDY    50  25  37 E15       30.27F
-EAGLE CREEK   FAIR      50  26  39 E7        30.28F
KOKOMO +       FAIR      41  31  67 E7        30.33F
MARION +       FAIR      45  23  41 CALM      30.34S
MT COMFORT *+  FAIR      45  34  65 E7        30.29F
SHELBYVILLE    FAIR      48  30  49 E10       30.28F
ZIONSVILLE +   FAIR      46  30  53 E8        30.30F

$$

INZ033-034-041-042-049-050-058-059-220800-
EAST CENTRAL INDIANA

CITY           SKY/WX    TMP DP  RH WIND       PRES   REMARKS
MUNCIE         MOCLDY    46  27  47 E8        30.31F
RICHMOND +     FAIR      41  30  65 NE8       30.32F

$$

INZ060-061-067>069-081>083-085>088-220800-
SOUTHWEST INDIANA

CITY           SKY/WX    TMP DP  RH WIND       PRES   REMARKS
EVANSVILLE     FAIR      55  33  43 E6        30.21F
HUNTINGBURG +  FAIR      54  29  38 E7        30.23S
WASHINGTON +   FAIR      51  29  42 E5        30.23S

$$

INZ062-063-066-070>080-084-089>092-220800-
SOUTH CENTRAL AND SOUTHEAST INDIANA

CITY           SKY/WX    TMP DP  RH WIND       PRES   REMARKS
BATESVILLE +   MOCLDY    46  28  49 MISG      30.29F
BEDFORD +      FAIR      52  19  28 E7        30.25F
BLOOMINGTON    FAIR      52  24  33 E10       30.25F
FRENCH LICK *+ FAIR      52  18  25 E10       30.23F
MADISON *+     FAIR      52  19  28 E12       30.27F
NORTH VERNON + FAIR      50  25  37 E9G16     30.27F
SEYMOUR +      FAIR      52  28  40 E7        30.26F

$$





USA.gov is the U.S. government's official web portal to all federal, state and local government web resources and services.